Flag for Germany Weather past 2 weeks in Gorleben, Lower Saxony, Germany

Now
57 °F

Passing clouds.


Feels Like: 58 °F
Forecast: 49 / 65 °F
Wind: 3 mph from Northeast

Location: Marnitz


UV Index: 0 (Low)

Visibility: 10 mi


Pressure: 29.87 "Hg

Humidity: 78%

Dew point: 51 °F

Location of GorlebenLocation

Historic Weather in Gorleben

°F

Gorleben temperature yesterday

Maximum temperature yesterday: 64 °F (at 4:00 PM)
Minimum temperature yesterday: 35 °F (at 2:00 AM)
Average temperature yesterday: 49 °F

Past Weeks' High & Low Weather Summary

 TemperatureHumidityPressure
High67 °F (Apr 20, 3:00 PM)100% (Apr 6, 8:00 AM)30.45 "Hg (Apr 6, 8:00 AM)
Low31 °F (Apr 16, 4:00 AM)34% (Apr 17, 12:00 PM)29.65 "Hg (Apr 14, 10:00 AM)
Average49 °F76%30.01 "Hg
* Reported Apr 5 9:00 PM — Apr 20 9:00 PM, Gorleben, Weather by CustomWeather, © 2014

Note: Actual official high and low records may vary slightly from our data, if they occured in-between our weather recording intervals... More about our weather records

Advertising

Historic Weather Conditions — Data for Previous 24 hours

 ConditionsComfort  
Time TempWeatherWind HumidityBarometerVisibility
9:00 PM
Apr 20
57 °FPassing clouds.3 mph78%29.87 "Hg10 mi
8:00 PM61 °FPartly sunny.5 mph68%29.86 "Hg14 mi
7:00 PM64 °FPartly sunny.5 mph52%29.85 "Hg22 mi
6:00 PM66 °FPartly sunny.6 mph48%29.86 "Hg22 mi
5:00 PM67 °FPassing clouds.6 mph52%29.87 "Hg16 mi
4:00 PM66 °FPassing clouds.7 mph54%29.88 "Hg16 mi
3:00 PM67 °FPartly sunny.5 mph56%29.90 "Hg16 mi
2:00 PM65 °FPartly sunny.7 mph57%29.91 "Hg16 mi
1:00 PM64 °FOvercast.6 mph63%29.92 "Hg14 mi
12:00 PM60 °FOvercast.6 mph66%29.94 "Hg14 mi
11:00 AM62 °FPassing clouds.5 mph66%29.95 "Hg9 mi
10:00 AM58 °FScattered clouds.5 mph75%29.96 "Hg9 mi
9:00 AM53 °FPassing clouds.5 mph83%29.96 "Hg6 mi
8:00 AM48 °FFog.2 mph94%29.97 "Hg3 mi
7:00 AM43 °FFog.3 mph98%29.97 "Hg2 mi
6:00 AM42 °FFog.2 mph97%29.98 "Hg1 mi
5:00 AM42 °FFog.2 mph97%29.99 "Hg2 mi
4:00 AM43 °FFog.2 mph96%29.99 "Hg2 mi
3:00 AM44 °FFog.2 mph94%30.00 "Hg3 mi
2:00 AM45 °FFog.2 mph93%30.02 "Hg3 mi
1:00 AM46 °FFog.3 mph92%30.04 "Hg4 mi
12:00 AM48 °FClear.3 mph88%30.05 "Hg5 mi
11:00 PM
Apr 19
49 °FPassing clouds.3 mph86%30.05 "Hg5 mi
10:00 PM51 °FPassing clouds.3 mph81%30.06 "Hg7 mi
9:00 PM54 °FPassing clouds.5 mph75%30.06 "Hg10 mi
Weather by CustomWeather, © 2014

See weather overview